Location: Hamilton
(43.2500°N, 79.8330°W)
Time: 09:13:35
(UTC-04:00)

Amateur Radio Satellites - All Passes

Search period start: 18 April 2015 08:43
Search period end: 19 April 2015 08:43
Location: Hamilton, 43.2500°N, 79.8330°W

Satellite Date Start Highest point End Downlink Frequencies (MHz)
Time Altitude Azimuth
Cubesat XI-IV 18 Apr 08:48:48 08:53:27 31° 294° (WNW) 08:58:01 437.490
GOMX 1 18 Apr 09:00:26 09:04:10 22° 92° (E) 09:08:13 467.674
STRAND 1 18 Apr 09:08:13 09:10:00 11° 274° (W) 09:11:27 437.568
O/OREOS (USA 219) 18 Apr 09:09:11 09:12:13 18° 51° (NE) 09:15:20 437.305
Cosmos 2491 18 Apr 09:15:01 09:19:01 14° 53° (NE) 09:23:36 435.465 / 435.565
COMPASS 1 18 Apr 09:16:21 09:18:21 13° 88° (E) 09:20:34 437.405
CANX-2 18 Apr 09:21:22 09:24:55 25° 93° (E) 09:28:31 2200.000
SEEDS 18 Apr 09:27:29 09:30:48 22° 93° (E) 09:34:10 437.485
CUTE 1.7 + AOD 2 18 Apr 09:31:41 09:35:26 29° 95° (E) 09:39:13 437.475
TIGRISAT 18 Apr 09:37:46 09:39:00 11° 60° (ENE) 09:40:28 435.000
UNISAT 6 18 Apr 09:37:52 09:39:21 12° 60° (ENE) 09:41:03 437.425
CUBEBUG 2 18 Apr 09:47:57 09:49:34 12° 87° (E) 09:51:29 437.445
PCSat 18 Apr 09:55:10 09:59:22 24° 109° (ESE) 10:03:44 145.827
AAUSAT CUBESAT 2 18 Apr 10:04:39 10:08:36 39° 97° (E) 10:12:33 437.432
BRITE-PL 18 Apr 10:07:05 10:11:47 59° 286° (WNW) 10:16:50 437.365/2234.400
Oscar 11 18 Apr 10:08:04 10:11:19 21° 92° (E) 10:14:39 145.826/435.025
POLYITAN 1 18 Apr 10:09:53 10:11:15 12° 62° (ENE) 10:12:49 437.675
ANTELSAT 18 Apr 10:16:55 10:20:41 28° 68° (ENE) 10:24:36 437.575/2403.000
DOVE 4 18 Apr 10:17:01 10:21:56 82° 102° (ESE) 10:27:07 437.250
DUCHIFAT 1 18 Apr 10:20:33 10:22:45 14° 64° (ENE) 10:25:06 145.980
CINEMA 3 18 Apr 10:26:25 10:31:11 54° 99° (E) 10:36:05 145.822/145.860
HO-68 18 Apr 10:27:33 10:34:48 90° 292° (WNW) 10:42:00 435.675
YUBILEINY 18 Apr 10:28:36 10:32:16 14° 75° (ENE) 10:36:33 435.215
DX 1 18 Apr 10:28:47 10:30:05 11° 88° (E) 10:31:38 434.975-435.025
UWE-3 18 Apr 10:30:14 10:34:09 26° 94° (E) 10:38:08 435.000/436.395/437.385
QB50P1 18 Apr 10:31:40 10:34:37 19° 66° (ENE) 10:37:41 145.935-145.965
DELFI C3 18 Apr 10:34:38 10:38:11 29° 95° (E) 10:41:44 145.870
GOMX 1 18 Apr 10:37:52 10:42:30 45° 288° (WNW) 10:47:23 467.674
O/OREOS (USA 219) 18 Apr 10:47:37 10:52:03 55° 251° (WSW) 10:56:24 437.305
COMPASS 1 18 Apr 10:50:19 10:54:29 55° 286° (WNW) 10:58:35 437.405
HUMSAT D 18 Apr 10:52:21 10:55:08 17° 90° (E) 10:58:02 437.325/437.525
BUGSAT 1 18 Apr 10:52:22 10:55:23 21° 67° (ENE) 10:58:30 437.445
QB50P2 18 Apr 10:53:44 10:57:29 32° 70° (ENE) 11:01:18 145.880/145.840
CANX-2 18 Apr 10:57:05 11:00:53 30° 291° (WNW) 11:04:36 2200.000
FUNcube-1 18 Apr 11:02:07 11:06:30 43° 98° (E) 11:10:54 145.935
VELOX 1 18 Apr 11:02:10 11:03:52 12° 88° (E) 11:05:48 145.980
SEEDS 18 Apr 11:02:50 11:06:42 33° 290° (WNW) 11:10:30 437.485
CUTE 1.7 + AOD 2 18 Apr 11:07:40 11:11:18 26° 292° (WNW) 11:14:50 437.475
Cosmos 2491 18 Apr 11:09:22 11:18:09 66° 78° (ENE) 11:26:56 435.465 / 435.565
TIGRISAT 18 Apr 11:10:40 11:15:05 86° 257° (WSW) 11:19:40 435.000
UNISAT 6 18 Apr 11:11:03 11:15:30 83° 259° (W) 11:20:06 437.425
AISAT 18 Apr 11:15:32 11:18:31 18° 91° (E) 11:21:40 437.250
POPSAT HIP 1 18 Apr 11:16:45 11:20:51 56° 74° (ENE) 11:25:00 437.405
NANOSAT C BR1 18 Apr 11:17:26 11:21:32 57° 74° (ENE) 11:25:41 145.865
UKube-1 18 Apr 11:21:38 11:25:43 40° 98° (E) 11:29:49 .
CUBEBUG 2 18 Apr 11:22:09 11:26:53 77° 286° (WNW) 11:31:39 437.445
ZACube-1 18 Apr 11:23:54 11:28:31 76° 103° (ESE) 11:33:08 437.345
ESTCUBE 1 18 Apr 11:26:15 11:28:00 12° 88° (E) 11:30:00 437.505/2401.250
CUBEBUG 1 18 Apr 11:32:14 11:33:53 12° 88° (E) 11:35:46 437.445
PCSat 18 Apr 11:37:13 11:42:30 52° 306° (NW) 11:47:49 145.827
AAUSAT CUBESAT 2 18 Apr 11:40:55 11:44:00 19° 293° (WNW) 11:46:57 437.432
POLYITAN 1 18 Apr 11:42:27 11:46:39 73° 259° (W) 11:50:53 437.675
Oscar 11 18 Apr 11:43:36 11:47:39 37° 289° (WNW) 11:51:39 145.826/435.025
ANTELSAT 18 Apr 11:53:29 11:57:25 30° 265° (W) 12:01:25 437.575/2403.000
DUCHIFAT 1 18 Apr 11:54:03 11:58:10 56° 260° (W) 12:02:19 145.980
50 SAT 18 Apr 11:55:55 11:59:54 50° 99° (E) 12:03:52 437.505
DOVE 4 18 Apr 11:56:41 11:59:12 14° 297° (WNW) 12:01:34 437.250
DX 1 18 Apr 12:02:34 12:06:54 69° 285° (WNW) 12:11:13 434.975-435.025
CINEMA 3 18 Apr 12:04:34 12:08:03 19° 295° (WNW) 12:11:28 145.822/145.860
QB50P1 18 Apr 12:06:17 12:10:15 40° 262° (W) 12:14:14 145.935-145.965
UWE-3 18 Apr 12:06:30 12:10:44 34° 290° (WNW) 12:14:55 435.000/436.395/437.385
DELFI C3 18 Apr 12:09:56 12:13:14 24° 292° (WNW) 12:16:27 145.870
HO-68 18 Apr 12:16:41 12:21:42 20° 305° (NW) 12:26:27 435.675
YUBILEINY 18 Apr 12:18:55 12:27:40 72° 94° (E) 12:36:29 435.215
HUMSAT D 18 Apr 12:27:00 12:31:11 46° 288° (WNW) 12:35:20 437.325/437.525
BUGSAT 1 18 Apr 12:27:04 12:30:43 32° 263° (W) 12:34:21 437.445
QB50P2 18 Apr 12:30:06 12:33:29 22° 267° (W) 12:36:46 145.880/145.840
VELOX 1 18 Apr 12:36:34 12:40:58 66° 286° (WNW) 12:45:21 145.980
BEESAT 2 18 Apr 12:39:06 12:40:54 13° 35° (NE) 12:42:48 435.950
FUNcube-1 18 Apr 12:39:06 12:42:35 21° 294° (WNW) 12:45:56 145.935
BEESAT 3 18 Apr 12:47:53 12:50:29 16° 39° (NE) 12:53:07 437.485
AISAT 18 Apr 12:51:09 12:55:24 45° 288° (WNW) 12:59:38 437.250
POPSAT HIP 1 18 Apr 12:55:08 12:57:11 13° 271° (W) 12:59:02 437.405
NANOSAT C BR1 18 Apr 12:55:50 12:57:50 13° 271° (W) 12:59:37 145.865
SO-50 18 Apr 12:57:55 12:58:50 11° 108° (ESE) 13:00:03 436.795
UKube-1 18 Apr 12:58:24 13:01:38 20° 294° (WNW) 13:04:46 .
Oscar 19 18 Apr 13:00:37 13:04:53 28° 66° (ENE) 13:09:17 437.125/150
ESTCUBE 1 18 Apr 13:00:57 13:05:26 66° 285° (WNW) 13:09:52 437.505/2401.250
ZACube-1 18 Apr 13:02:06 13:04:21 13° 297° (WNW) 13:06:22 437.345
AIST 1 18 Apr 13:03:01 13:07:07 44° 77° (ENE) 13:11:12
CUBEBUG 1 18 Apr 13:06:27 13:10:46 64° 286° (WNW) 13:15:04 437.445
Cosmos 2491 18 Apr 13:07:12 13:14:26 28° 277° (W) 13:21:24 435.465 / 435.565
ITAMSAT 1 18 Apr 13:18:52 13:21:27 14° 60° (ENE) 13:24:16 435.822/435.867
SPROUT 18 Apr 13:23:24 13:27:38 53° 100° (E) 13:31:53 437.525
TISAT 1 18 Apr 13:24:37 13:28:39 43° 98° (E) 13:32:43 437.305
PCSat 18 Apr 13:25:08 13:27:19 12° 329° (NNW) 13:29:18 145.827
50 SAT 18 Apr 13:32:00 13:34:23 15° 295° (WNW) 13:36:36 437.505
BEESAT 2 18 Apr 14:15:37 14:19:47 77° 55° (NE) 14:23:51 435.950
YUBILEINY 18 Apr 14:18:10 14:25:29 27° 297° (WNW) 14:32:32 435.215
Cosmos 2504 18 Apr 14:23:02 14:31:13 46° 89° (E) 14:39:34 435.465 / 435.565
ITUPSAT 1 18 Apr 14:23:42 14:27:49 29° 95° (E) 14:32:00 437.325
BEESAT 3 18 Apr 14:24:54 14:29:00 72° 239° (WSW) 14:33:02 437.485
AIST 2 18 Apr 14:25:40 14:29:36 35° 48° (NE) 14:33:30 435.215
RS-15 18 Apr 14:26:02 14:31:30 16° 99° (E) 14:37:49 29.354- 29.394
JAS-2 18 Apr 14:26:48 14:30:33 15° 53° (NE) 14:34:40 435.910
SO-50 18 Apr 14:34:01 14:38:40 89° 119° (ESE) 14:43:31 436.795
Gurwin Techsat 1B 18 Apr 14:36:55 14:42:05 57° 72° (ENE) 14:47:19 435.225
Oscar 19 18 Apr 14:39:20 14:44:07 38° 263° (W) 14:48:56 437.125/150
AIST 1 18 Apr 14:41:51 14:44:26 15° 273° (W) 14:46:51
AO-7 18 Apr 14:42:05 14:48:18 25° 53° (NE) 14:54:46 29.400- 29.500
ISS 18 Apr 14:54:26 14:56:55 20° 135° (SE) 14:59:26 145.825
ITAMSAT 1 18 Apr 14:55:08 15:00:21 84° 259° (WSW) 15:05:35 435.822/435.867
BEESAT 18 Apr 14:59:29 15:04:16 68° 102° (ESE) 15:09:00 436.000
SWISSCUBE 18 Apr 15:00:34 15:05:21 76° 103° (ESE) 15:10:07 437.505
SPROUT 18 Apr 15:00:41 15:03:21 16° 296° (WNW) 15:05:52 437.525
TISAT 1 18 Apr 15:01:13 15:04:11 18° 294° (WNW) 15:07:02 437.305
STARS 18 Apr 15:11:33 15:11:58 10° 87° (E) 15:12:41 437.465
HORYU 2 18 Apr 15:12:57 15:16:38 26° 67° (ENE) 15:20:24 437.375
KKS-1 18 Apr 15:30:42 15:34:30 27° 95° (E) 15:38:21 437.445
BEESAT 2 18 Apr 15:56:25 15:57:21 10° 251° (WSW) 15:58:03 435.950
ITUPSAT 1 18 Apr 16:01:29 16:05:44 32° 292° (WNW) 16:09:54 437.325
AIST 2 18 Apr 16:04:31 16:08:04 25° 246° (WSW) 16:11:30 435.215
JAS-2 18 Apr 16:06:39 16:14:17 62° 71° (ENE) 16:21:58 435.910
Cosmos 2504 18 Apr 16:16:23 16:24:45 43° 289° (WNW) 16:33:03 435.465 / 435.565
SO-50 18 Apr 16:16:42 16:19:57 18° 325° (NW) 16:23:11 436.795
Gurwin Techsat 1B 18 Apr 16:18:42 16:22:31 19° 270° (W) 16:26:10 435.225
ISS 18 Apr 16:29:52 16:33:04 54° 331° (NNW) 16:36:18 145.825
RS-15 18 Apr 16:31:18 16:42:05 74° 119° (ESE) 16:53:09 29.354- 29.394
AO-7 18 Apr 16:32:00 16:40:19 83° 253° (WSW) 16:48:40 29.400- 29.500
BEESAT 18 Apr 16:38:49 16:41:37 15° 298° (WNW) 16:44:13 436.000
SWISSCUBE 18 Apr 16:40:11 16:42:40 14° 299° (WNW) 16:44:56 437.505
GONETS M04 18 Apr 16:42:54 16:49:18 24° 81° (E) 16:56:03
STARS 18 Apr 16:44:38 16:49:05 79° 285° (WNW) 16:53:31 437.465
HORYU 2 18 Apr 16:49:09 16:53:11 32° 264° (W) 16:57:13 437.375
Cubesat XI-IV 18 Apr 16:57:14 16:57:34 10° 56° (NE) 16:58:12 437.490
KKS-1 18 Apr 17:07:12 17:11:09 30° 291° (WNW) 17:15:03 437.445
JAS-2 18 Apr 17:52:58 17:59:44 31° 269° (W) 18:06:24 435.910
ISS 18 Apr 18:07:26 18:09:58 20° 351° (N) 18:12:29 145.825
MOZHAYETS 4 18 Apr 18:11:47 18:16:26 89° 295° (WNW) 18:21:01
CUTE-I 18 Apr 18:24:27 18:29:38 57° 72° (ENE) 18:34:53 437.470
AO-7 18 Apr 18:29:19 18:34:32 17° 274° (W) 18:39:14 29.400- 29.500
Cubesat XI-IV 18 Apr 18:31:30 18:36:47 67° 73° (ENE) 18:42:07 437.490
GONETS M04 18 Apr 18:36:36 18:45:21 74° 281° (W) 18:54:12
PCSat 18 Apr 18:41:01 18:45:38 28° 46° (NE) 18:50:18 145.827
AUBIESAT-1 18 Apr 18:44:33 18:47:32 18° 95° (E) 18:50:28 437.475
RS-15 18 Apr 18:45:21 18:55:30 40° 326° (NW) 19:05:51 29.354- 29.394
Cosmos 2499 18 Apr 19:08:59 19:16:45 37° 86° (E) 19:24:38 435.465 / 435.565
HO-68 18 Apr 19:13:00 19:17:02 17° 52° (NE) 19:21:22 435.675
DANDE 18 Apr 19:13:28 19:16:18 76° 99° (E) 19:19:50 436.750
CUBESAT XI-V 18 Apr 19:25:49 19:30:13 43° 98° (E) 19:34:36 437.345
CUSAT 1 18 Apr 19:25:59 19:28:57 45° 286° (WNW) 19:32:43 437.405
M-CUBED/EXP-1 PRIME 18 Apr 19:28:20 19:32:50 61° 105° (ESE) 19:36:56 437.505
STRAND 1 18 Apr 19:34:52 19:39:07 27° 94° (E) 19:43:26 437.568
BRITE-PL 18 Apr 19:43:03 19:45:45 17° 65° (ENE) 19:48:34 437.365/2234.400
ISS 18 Apr 19:44:32 19:47:08 21° 11° (NNE) 19:49:45 145.825
MOZHAYETS 4 18 Apr 19:51:45 19:53:01 11° 300° (WNW) 19:54:02
CUTE-I 18 Apr 20:06:20 20:10:10 19° 270° (W) 20:13:50 437.470
COMPASS 1 18 Apr 20:09:46 20:11:17 12° 63° (ENE) 20:12:59 437.405
GOMX 1 18 Apr 20:10:45 20:13:54 22° 67° (ENE) 20:17:13 467.674
PRISM 18 Apr 20:10:52 20:15:01 85° 101° (ESE) 20:19:06 437.425
Cubesat XI-IV 18 Apr 20:14:04 20:17:29 16° 271° (W) 20:20:40 437.490
CANX-2 18 Apr 20:15:43 20:18:58 22° 67° (ENE) 20:22:20 2200.000
AUBIESAT-1 18 Apr 20:18:22 20:22:40 44° 294° (WNW) 20:26:36 437.475
SEEDS 18 Apr 20:21:06 20:24:05 19° 66° (ENE) 20:27:10 437.485
PCSat 18 Apr 20:24:05 20:29:20 51° 246° (WSW) 20:34:33 145.827
CUTE 1.7 + AOD 2 18 Apr 20:25:50 20:29:19 25° 68° (ENE) 20:32:54 437.475
VERMONT LUNAR 18 Apr 20:34:10 20:36:47 21° 156° (SSE) 20:39:24 437.305
GONETS M04 18 Apr 20:38:49 20:44:10 16° 305° (NW) 20:49:05
CUBEBUG 2 18 Apr 20:48:35 20:49:41 11° 61° (ENE) 20:51:01 437.445
HO-68 18 Apr 20:56:35 21:03:44 76° 71° (ENE) 21:10:57 435.675
AAUSAT CUBESAT 2 18 Apr 20:56:37 21:00:19 31° 70° (ENE) 21:04:05 437.432
Cosmos 2499 18 Apr 21:01:02 21:09:42 54° 286° (WNW) 21:18:14 435.465 / 435.565
RS-15 18 Apr 21:03:27 21:12:03 24° 359° (N) 21:20:53 29.354- 29.394
CUBESAT XI-V 18 Apr 21:03:56 21:07:24 21° 294° (WNW) 21:10:45 437.345
Oscar 11 18 Apr 21:04:16 21:07:20 20° 66° (ENE) 21:10:32 145.826/435.025
M-CUBED/EXP-1 PRIME 18 Apr 21:04:20 21:07:10 16° 304° (WNW) 21:09:45 437.505
STRAND 1 18 Apr 21:13:44 21:18:27 38° 291° (WNW) 21:23:07 437.568
BRITE-PL 18 Apr 21:20:07 21:24:03 40° 262° (W) 21:28:00 437.365/2234.400
ISS 18 Apr 21:20:41 21:23:57 68° 30° (NNE) 21:27:11 145.825
PHONESAT 2.4 18 Apr 21:22:31 21:25:12 20° 155° (SSE) 21:27:54 2401.200-2431.200
DELFI C3 18 Apr 21:23:40 21:26:48 22° 68° (ENE) 21:30:01 145.870
DOVE 4 18 Apr 21:24:19 21:28:28 90° 100° (E) 21:32:47 437.250
SO-50 18 Apr 21:24:49 21:28:24 20° 37° (NE) 21:32:05 436.795
DX 1 18 Apr 21:25:42 21:27:33 13° 62° (ENE) 21:29:36 434.975-435.025
UWE-3 18 Apr 21:28:59 21:32:21 23° 67° (ENE) 21:35:52 435.000/436.395/437.385
CINEMA 3 18 Apr 21:29:36 21:33:42 51° 73° (ENE) 21:37:59 145.822/145.860
COMPASS 1 18 Apr 21:42:14 21:46:27 72° 258° (WSW) 21:50:43 437.405
HUMSAT D 18 Apr 21:46:11 21:48:23 14° 64° (ENE) 21:50:46 437.325/437.525
GOMX 1 18 Apr 21:48:11 21:51:56 32° 265° (W) 21:55:44 467.674
CANX-2 18 Apr 21:50:45 21:54:43 36° 264° (W) 21:58:42 2200.000
SEEDS 18 Apr 21:55:34 21:59:37 41° 262° (W) 22:03:42 437.485
FUNcube-1 18 Apr 21:59:07 22:03:02 37° 71° (ENE) 22:07:05 145.935
VELOX 1 18 Apr 22:01:11 22:03:22 14° 63° (ENE) 22:05:44 145.980
CUTE 1.7 + AOD 2 18 Apr 22:01:19 22:05:09 30° 265° (W) 22:08:58 437.475
VERMONT LUNAR 18 Apr 22:10:40 22:13:57 48° 171° (S) 22:17:13 437.305
AISAT 18 Apr 22:14:48 22:17:53 20° 65° (ENE) 22:21:06 437.250
UKube-1 18 Apr 22:17:31 22:21:32 39° 71° (ENE) 22:25:36 .
ZACube-1 18 Apr 22:20:53 22:25:06 66° 75° (ENE) 22:29:28 437.345
Cosmos 2491 18 Apr 22:21:01 22:24:33 14° 75° (ENE) 22:28:44 435.465 / 435.565
CUBEBUG 2 18 Apr 22:21:29 22:25:45 81° 257° (WSW) 22:30:11 437.445
ESTCUBE 1 18 Apr 22:27:07 22:29:31 15° 63° (ENE) 22:32:05 437.505/2401.250
YUBILEINY 18 Apr 22:28:10 22:36:08 38° 69° (ENE) 22:44:08 435.215
CUBEBUG 1 18 Apr 22:29:59 22:31:53 13° 63° (ENE) 22:33:57 437.445
AAUSAT CUBESAT 2 18 Apr 22:32:32 22:36:00 24° 267° (W) 22:39:24 437.432
Oscar 11 18 Apr 22:39:08 22:43:16 42° 262° (W) 22:47:25 145.826/435.025
50 SAT 18 Apr 22:42:36 22:46:11 34° 71° (ENE) 22:49:51 437.505
HO-68 18 Apr 22:46:55 22:52:16 21° 271° (W) 22:57:22 435.675
ISS 18 Apr 22:57:56 23:00:00 16° 227° (SW) 23:02:00 145.825
DELFI C3 18 Apr 22:58:06 23:01:49 32° 264° (W) 23:05:30 145.870
DX 1 18 Apr 22:59:00 23:03:19 69° 258° (WSW) 23:07:39 434.975-435.025
PHONESAT 2.4 18 Apr 22:59:36 23:03:03 47° 171° (S) 23:06:31 2401.200-2431.200
TIGRISAT 18 Apr 23:02:10 23:05:33 20° 91° (E) 23:09:03 435.000
Cosmos 2499 18 Apr 23:02:28 23:05:24 11° 310° (NW) 23:07:41 435.465 / 435.565
UNISAT 6 18 Apr 23:02:45 23:06:14 21° 91° (E) 23:09:50 437.425
SO-50 18 Apr 23:04:36 23:09:35 79° 237° (WSW) 23:14:29 436.795
UWE-3 18 Apr 23:04:51 23:08:44 33° 265° (W) 23:12:43 435.000/436.395/437.385
CINEMA 3 18 Apr 23:08:57 23:11:22 14° 272° (W) 23:13:39 145.822/145.860
RS-15 18 Apr 23:18:34 23:28:49 38° 32° (NNE) 23:39:38 29.354- 29.394
HUMSAT D 18 Apr 23:19:36 23:23:43 56° 260° (W) 23:27:55 437.325/437.525
O/OREOS (USA 219) 18 Apr 23:23:38 23:26:06 15° 100° (E) 23:28:45 437.305
POLYITAN 1 18 Apr 23:27:55 23:30:43 17° 91° (E) 23:33:40 437.675
VELOX 1 18 Apr 23:35:06 23:39:28 64° 259° (WSW) 23:43:53 145.980
FUNcube-1 18 Apr 23:36:19 23:39:33 20° 269° (W) 23:42:45 145.935
DUCHIFAT 1 18 Apr 23:38:24 23:41:37 21° 93° (E) 23:44:57 145.980
ANTELSAT 18 Apr 23:43:41 23:48:19 53° 99° (E) 23:52:56 437.575/2403.000
VERMONT LUNAR 18 Apr 23:48:01 23:51:18 46° 189° (S) 23:54:32 437.305
AISAT 18 Apr 23:50:01 23:54:13 43° 262° (W) 23:58:26 437.250
QB50P1 18 Apr 23:50:24 23:54:08 29° 95° (E) 23:57:54 145.935-145.965
UKube-1 18 Apr 23:54:41 23:57:53 19° 268° (W) 00:00:58 .
ZACube-1 19 Apr 00:00:27 00:02:04 12° 273° (W) 00:03:27 437.345
ESTCUBE 1 19 Apr 00:01:26 00:05:56 64° 259° (W) 00:10:27 437.505/2401.250
CUBEBUG 1 19 Apr 00:03:27 00:07:46 68° 258° (WSW) 00:12:06 437.445
BUGSAT 1 19 Apr 00:07:56 00:11:35 30° 96° (E) 00:15:17 437.445
Cosmos 2491 19 Apr 00:11:22 00:20:00 73° 94° (E) 00:28:44 435.465 / 435.565
QB50P2 19 Apr 00:13:18 00:17:30 53° 100° (E) 00:21:43 145.880/145.840
Cosmos 2504 19 Apr 00:16:05 00:21:00 17° 56° (NE) 00:26:07 435.465 / 435.565
TISAT 1 19 Apr 00:17:57 00:21:47 37° 70° (ENE) 00:25:40 437.305
50 SAT 19 Apr 00:18:13 00:21:09 19° 268° (W) 00:24:02 437.505
SPROUT 19 Apr 00:18:33 00:22:38 46° 72° (ENE) 00:26:46 437.525
YUBILEINY 19 Apr 00:24:53 00:33:16 51° 270° (W) 00:41:30 435.215
BEESAT 19 Apr 00:33:07 00:34:29 11° 59° (ENE) 00:36:05 436.000
SWISSCUBE 19 Apr 00:33:42 00:35:36 13° 60° (ENE) 00:37:43 437.505
POPSAT HIP 1 19 Apr 00:36:32 00:40:50 87° 285° (WNW) 00:45:08 437.405
NANOSAT C BR1 19 Apr 00:36:56 00:41:14 86° 286° (WNW) 00:45:31 145.865
PHONESAT 2.4 19 Apr 00:37:39 00:41:08 50° 187° (S) 00:44:35 2401.200-2431.200
TIGRISAT 19 Apr 00:38:01 00:42:33 46° 289° (WNW) 00:47:02 435.000
UNISAT 6 19 Apr 00:38:45 00:43:15 44° 289° (WNW) 00:47:42 437.425
SO-50 19 Apr 00:49:01 00:49:25 10° 253° (WSW) 00:49:30 436.795
O/OREOS (USA 219) 19 Apr 01:00:33 01:05:05 58° 296° (WNW) 01:09:38 437.305
POLYITAN 1 19 Apr 01:02:47 01:06:55 44° 288° (WNW) 01:11:00 437.675
DUCHIFAT 1 19 Apr 01:13:40 01:17:35 35° 290° (WNW) 01:21:27 145.980
ANTELSAT 19 Apr 01:21:25 01:24:45 19° 296° (WNW) 01:27:55 437.575/2403.000
VERMONT LUNAR 19 Apr 01:25:55 01:28:26 19° 205° (SSW) 01:30:54 437.305
QB50P1 19 Apr 01:26:20 01:29:56 26° 292° (WNW) 01:33:29 145.935-145.965
RS-15 19 Apr 01:31:10 01:42:44 85° 237° (WSW) 01:54:48 29.354- 29.394
ITUPSAT 1 19 Apr 01:31:26 01:35:52 39° 69° (ENE) 01:40:21 437.325
AIST 1 19 Apr 01:34:01 01:37:34 26° 90° (E) 01:41:10
BUGSAT 1 19 Apr 01:43:40 01:46:58 23° 292° (WNW) 01:50:12 437.445
QB50P2 19 Apr 01:50:25 01:53:02 16° 296° (WNW) 01:55:31 145.880/145.840
TISAT 1 19 Apr 01:54:38 01:57:44 19° 268° (W) 02:00:45 437.305
SPROUT 19 Apr 01:56:17 01:59:03 16° 270° (W) 02:01:39 437.525
BEESAT 19 Apr 02:06:51 02:11:39 87° 79° (E) 02:16:29 436.000
Cosmos 2504 19 Apr 02:07:46 02:16:10 81° 81° (E) 02:23:53 435.465 / 435.565
SWISSCUBE 19 Apr 02:08:02 02:12:51 85° 255° (WSW) 02:17:41 437.505
STARS 19 Apr 02:09:28 02:10:54 12° 61° (ENE) 02:12:33 437.465
Cosmos 2491 19 Apr 02:10:42 02:17:51 26° 297° (WNW) 02:24:48 435.465 / 435.565
PHONESAT 2.4 19 Apr 02:16:09 02:19:01 23° 204° (SSW) 02:21:52 2401.200-2431.200
KKS-1 19 Apr 02:30:03 02:33:49 29° 68° (ENE) 02:37:40 437.445
Oscar 19 19 Apr 02:49:15 02:54:28 69° 101° (E) 02:59:39 437.125/150
GONETS M04 19 Apr 02:51:44 02:54:59 13° 51° (NE) 02:58:52
Gurwin Techsat 1B 19 Apr 02:52:50 02:56:42 21° 91° (E) 03:00:44 435.225
ITAMSAT 1 19 Apr 03:07:17 03:11:51 32° 95° (E) 03:16:29 435.822/435.867
ITUPSAT 1 19 Apr 03:09:58 03:13:54 24° 267° (W) 03:17:46 437.325
AIST 1 19 Apr 03:11:25 03:15:10 27° 287° (WNW) 03:18:52
MOZHAYETS 4 19 Apr 03:40:57 03:42:30 12° 61° (ENE) 03:44:16
STARS 19 Apr 03:42:25 03:46:48 79° 259° (WSW) 03:51:13 437.465
RS-15 19 Apr 03:45:22 03:53:51 23° 258° (WSW) 04:01:53 29.354- 29.394
BEESAT 19 Apr 03:49:27 03:50:17 10° 274° (W) 03:50:46 436.000
Cosmos 2504 19 Apr 04:02:50 04:08:34 20° 281° (W) 04:13:40 435.465 / 435.565
KKS-1 19 Apr 04:06:34 04:10:26 28° 265° (W) 04:14:16 437.445
DANDE 19 Apr 04:07:57 04:11:21 15° 62° (ENE) 04:15:31 436.750
BEESAT 2 19 Apr 04:13:37 04:14:38 11° 109° (ESE) 04:15:53 435.950
CUSAT 1 19 Apr 04:17:01 04:22:05 23° 66° (ENE) 04:28:05 437.405
BEESAT 3 19 Apr 04:20:26 04:22:53 16° 112° (ESE) 04:25:30 437.485
Oscar 19 19 Apr 04:29:57 04:33:19 17° 299° (WNW) 04:36:31 437.125/150
Gurwin Techsat 1B 19 Apr 04:31:54 04:37:04 52° 289° (WNW) 04:42:11 435.225
AO-7 19 Apr 04:32:54 04:39:59 31° 94° (E) 04:47:15 29.400- 29.500
HORYU 2 19 Apr 04:38:55 04:43:14 43° 98° (E) 04:47:32 437.375
M-CUBED/EXP-1 PRIME 19 Apr 04:44:57 04:47:18 14° 55° (NE) 04:49:52 437.505
GONETS M04 19 Apr 04:45:35 04:54:20 60° 76° (ENE) 05:03:03
ITAMSAT 1 19 Apr 04:46:44 04:51:23 34° 293° (WNW) 04:55:57 435.822/435.867
Cosmos 2499 19 Apr 05:01:23 05:04:20 13° 51° (NE) 05:07:42 435.465 / 435.565
JAS-2 19 Apr 05:01:32 05:08:04 47° 96° (E) 05:13:51 435.910
MOZHAYETS 4 19 Apr 05:14:27 05:19:07 86° 258° (WSW) 05:23:48
AUBIESAT-1 19 Apr 05:32:14 05:36:23 32° 63° (ENE) 05:40:41 437.475
BEESAT 2 19 Apr 05:48:06 05:52:13 76° 305° (NW) 05:56:24 435.950
DANDE 19 Apr 05:48:55 05:55:26 74° 79° (ENE) 06:03:35 436.750
BEESAT 3 19 Apr 05:56:32 06:00:33 52° 308° (NW) 06:04:36 437.485
CUSAT 1 19 Apr 05:58:34 06:05:23 80° 262° (W) 06:13:32 437.405
AIST 2 19 Apr 06:02:34 06:06:41 51° 119° (ESE) 06:10:52 435.215
HORYU 2 19 Apr 06:16:15 06:19:37 20° 295° (WNW) 06:22:51 437.375
M-CUBED/EXP-1 PRIME 19 Apr 06:16:47 06:21:30 87° 251° (WSW) 06:26:24 437.505
AO-7 19 Apr 06:25:09 06:33:19 62° 294° (WNW) 06:41:27 29.400- 29.500
CUBESAT XI-V 19 Apr 06:30:07 06:34:34 48° 72° (ENE) 06:39:03 437.345
CUTE-I 19 Apr 06:41:17 06:45:08 21° 91° (E) 06:49:09 437.470
GONETS M04 19 Apr 06:43:11 06:50:44 31° 276° (W) 06:58:01
JAS-2 19 Apr 06:46:55 06:52:55 32° 297° (WNW) 06:58:12 435.910
Cubesat XI-IV 19 Apr 06:48:22 06:52:35 24° 93° (E) 06:56:55 437.490
STRAND 1 19 Apr 06:51:36 06:56:25 43° 70° (ENE) 07:01:16 437.568
Cosmos 2499 19 Apr 06:51:40 06:59:44 64° 77° (ENE) 07:07:10 435.465 / 435.565
PRISM 19 Apr 07:01:48 07:05:58 71° 75° (ENE) 07:10:09 437.425
AUBIESAT-1 19 Apr 07:06:54 07:11:07 32° 260° (W) 07:15:25 437.475
BEESAT 2 19 Apr 07:29:12 07:31:07 13° 325° (NW) 07:32:55 435.950
DANDE 19 Apr 07:33:17 07:38:30 23° 270° (W) 07:44:10 436.750
AIST 2 19 Apr 07:42:12 07:45:35 21° 318° (NW) 07:48:54 435.215
CUSAT 1 19 Apr 07:43:28 07:47:40 16° 274° (W) 07:51:45 437.405
M-CUBED/EXP-1 PRIME 19 Apr 07:56:17 07:57:09 10° 270° (W) 07:57:42 437.505
CUBESAT XI-V 19 Apr 08:09:03 08:12:19 18° 270° (W) 08:15:27 437.345
AO-7 19 Apr 08:20:02 08:24:39 16° 314° (NW) 08:28:53 29.400- 29.500
CUTE-I 19 Apr 08:20:25 08:25:36 53° 289° (WNW) 08:30:45 437.470
HO-68 19 Apr 08:26:27 08:28:41 12° 83° (E) 08:31:27 435.675
Cubesat XI-IV 19 Apr 08:27:52 08:32:56 45° 290° (WNW) 08:37:58 437.490
STRAND 1 19 Apr 08:31:41 08:35:50 24° 267° (W) 08:39:53 437.568
PRISM 19 Apr 08:41:23 08:42:00 10° 272° (W) 08:42:23 437.425
